EW5822 Weather Reports


Display with metric or nautical units.
time (UTC)temp
F
wind
direction
speed
MPH
gust
MPH
rain 1hr
in
rain 24hr
in
rain mn
in
humidity
%
barometer
mb
20260503020213 55 140 5.0 7.0 0.00 0.00 0.00 50 1015.7
20260503015615 56 145 5.0 8.0 0.00 0.00 0.00 48 1015.7
20260503014503 57 147 7.0 9.0 0.00 0.00 0.00 47 1015.6
20260503013815 58 153 6.0 8.0 0.00 0.00 0.00 46 1015.6
20260503012917 59 169 6.0 7.0 0.00 0.00 0.00 43 1015.6
20260503011803 62 173 5.0 7.0 0.00 0.00 0.00 40 1015.7
20260503010903 63 173 5.0 6.0 0.00 0.00 0.00 36 1015.7
20260503010003 64 180 4.0 6.0 0.00 0.00 0.00 35 1015.7
20260503005615 65 189 4.0 7.0 0.00 0.00 0.00 34 1015.7
20260503004713 66 189 5.0 7.0 0.00 0.00 0.00 33 1015.7
20260503003603 66 204 7.0 11.0 0.00 0.00 0.00 33 1015.7
20260503002918 67 209 7.0 10.0 0.00 0.00 0.00 33 1015.8
20260503002015 67 205 7.0 12.0 0.00 0.00 0.00 31 1015.8
20260503001112 68 201 6.0 12.0 0.00 0.00 0.00 30 1015.9
20260503000003 68 206 7.0 11.0 0.00 0.00 0.00 30 1015.9
20260502235616 68 203 8.0 11.0 0.00 0.00 0.00 30 1016.0
20260502234713 68 199 8.0 13.0 0.00 0.00 0.00 31 1016.0
20260502233603 68 211 6.0 10.0 0.00 0.00 0.00 30 1016.1
20260502232913 68 210 6.0 10.0 0.00 0.00 0.00 29 1016.2
20260502231803 69 223 5.0 14.0 0.00 0.00 0.00 29 1016.3
20260502230903 69 233 4.0 9.0 0.00 0.00 0.00 28 1016.4
20260502230004 69 227 6.0 12.0 0.00 0.00 0.00 30 1016.4
20260502225617 68 226 5.0 12.0 0.00 0.00 0.00 30 1016.4
20260502224714 69 229 7.0 14.0 0.00 0.00 0.00 29 1016.5
20260502223603 69 185 7.0 14.0 0.00 0.00 0.00 29 1016.4
20260502222914 68 172 10.0 17.0 0.00 0.00 0.00 30 1016.6
20260502221803 69 240 3.0 12.0 0.00 0.00 0.00 33 1016.7
20260502220903 68 250 6.0 11.0 0.00 0.00 0.00 28 1016.8
20260502220216 69 225 6.0 11.0 0.00 0.00 0.00 30 1016.9
20260502215617 69 217 5.0 11.0 0.00 0.00 0.00 32 1016.9
20260502214503 68 187 3.0 11.0 0.00 0.00 0.00 31 1017.0
20260502213817 68 214 6.0 12.0 0.00 0.00 0.00 29 1017.2
20260502212703 68 261 6.0 11.0 0.00 0.00 0.00 30 1017.3
20260502212017 68 241 5.0 11.0 0.00 0.00 0.00 34 1017.4
20260502211114 68 265 6.0 14.0 0.00 0.00 0.00 29 1017.5
20260502210216 68 272 5.0 13.0 0.00 0.00 0.00 31 1017.5
20260502205613 67 247 5.0 14.0 0.00 0.00 0.00 30 1017.6
20260502204503 67 213 5.0 11.0 0.00 0.00 0.00 28 1017.9
20260502203818 67 224 4.0 8.0 0.00 0.00 0.00 32 1017.9
20260502202915 67 249 5.0 12.0 0.00 0.00 0.00 30 1018.1
20260502201803 67 197 5.0 10.0 0.00 0.00 0.00 33 1018.2
20260502201115 67 192 6.0 12.0 0.00 0.00 0.00 31 1018.3
20260502200003 66 278 5.0 22.0 0.00 0.00 0.00 33 1018.3
20260502195403 66 238 6.0 22.0 0.00 0.00 0.00 29 1018.5
20260502194716 66 196 6.0 12.0 0.00 0.00 0.00 30 1018.5
20260502193603 65 4 3.0 8.0 0.00 0.00 0.00 31 1018.7
20260502192703 65 329 7.0 14.0 0.00 0.00 0.00 33 1018.9
20260502192013 64 299 7.0 12.0 0.00 0.00 0.00 32 1018.9
20260502190903 64 343 5.0 10.0 0.00 0.00 0.00 33 1018.9
20260502190003 64 324 7.0 15.0 0.00 0.00 0.00 32 1019.1
20260502185614 64 317 5.0 13.0 0.00 0.00 0.00 35 1019.2
20260502184717 64 331 6.0 12.0 0.00 0.00 0.00 33 1019.3
20260502183814 64 228 3.0 10.0 0.00 0.00 0.00 33 1019.5
20260502181804 63 123 4.0 9.0 0.00 0.00 0.00 34 1019.7
20260502181116 63 187 3.0 7.0 0.00 0.00 0.00 32 1019.9
20260502180213 63 255 5.0 12.0 0.00 0.00 0.00 36 1020.1
20260502170214 61 322 7.0 14.0 0.00 0.00 0.00 36 1020.8
20260502163815 60 312 6.0 14.0 0.00 0.00 0.00 36 1020.9
20260502162703 60 298 6.0 13.0 0.00 0.00 0.00 40 1020.9
20260502161803 59 302 7.0 14.0 0.00 0.00 0.00 39 1021.0
20260502160903 59 300 6.0 14.0 0.00 0.00 0.00 39 1021.0
20260502152015 57 320 2.0 9.0 0.00 0.00 0.00 40 1021.2
20260502150903 56 287 4.0 10.0 0.00 0.00 0.00 42 1021.3
20260502150215 56 304 2.0 7.0 0.00 0.00 0.00 42 1021.2
20260502123813 38 304 3.0 4.0 0.00 0.00 0.00 81 1021.0
20260502122916 36 304 2.0 3.0 0.00 0.00 0.00 81 1020.9
20260502122017 36 311 4.0 5.0 0.00 0.00 0.00 81 1020.8
20260502121115 35 323 4.0 4.0 0.00 0.00 0.00 80 1020.7
20260502115403 34 323 3.0 5.0 0.00 0.00 0.00 80 1020.5
20260502114716 34 323 3.0 4.0 0.00 0.00 0.00 80 1020.4
20260502113813 34 323 4.0 4.0 0.00 0.00 0.00 79 1020.4
20260502112916 34 323 3.0 4.0 0.00 0.00 0.00 80 1020.3
20260502112013 34 323 3.0 5.0 0.00 0.00 0.00 80 1020.2
20260502110903 34 324 4.0 5.0 0.00 0.00 0.00 79 1020.2
20260502110003 34 324 4.0 5.0 0.00 0.00 0.00 79 1020.2
20260502105614 34 325 3.0 5.0 0.00 0.00 0.00 78 1020.2
20260502104717 35 325 4.0 5.0 0.00 0.00 0.00 77 1020.2
20260502103814 36 24 3.0 5.0 0.00 0.00 0.00 77 1020.2
20260502102916 36 34 3.0 4.0 0.00 0.00 0.00 77 1020.2
20260502101803 36 34 3.0 4.0 0.00 0.00 0.00 77 1020.1
20260502100903 36 34 3.0 4.0 0.00 0.00 0.00 76 1020.0
20260502091117 37 35 0.0 3.0 0.00 0.00 0.00 73 1020.0
20260502090214 38 35 2.0 4.0 0.00 0.00 0.00 70 1019.9
20260502070903 43 35 1.0 3.0 0.00 0.00 0.00 61 1019.5
20260502070215 43 35 3.0 5.0 0.00 0.00 0.00 59 1019.5
20260502065617 43 35 5.0 5.0 0.00 0.00 0.00 60 1019.5
20260502064503 43 36 4.0 5.0 0.00 0.00 0.00 60 1019.5
20260502063816 44 36 3.0 4.0 0.00 0.00 0.00 60 1019.5
20260502062703 45 36 4.0 5.0 0.00 0.00 0.00 58 1019.3
20260502061803 45 36 2.0 4.0 0.00 0.00 0.00 58 1019.3
20260502060903 45 36 2.0 4.0 0.00 0.00 0.00 58 1019.3
20260502060216 45 36 3.0 4.0 0.00 0.00 0.00 58 1019.4
20260502055617 44 36 3.0 4.0 0.00 0.00 0.00 59 1019.3
20260502054715 44 36 5.0 8.0 0.00 0.00 0.00 60 1019.3
20260502053817 45 33 7.0 10.0 0.00 0.00 0.00 59 1019.2
20260502052704 46 34 8.0 10.0 0.00 0.00 0.00 57 1019.1
20260502052017 46 34 9.0 10.0 0.00 0.00 0.00 57 1019.0
20260502050903 46 32 9.0 10.0 0.00 0.00 0.00 59 1018.9
20260502050216 46 31 9.0 10.0 0.00 0.00 0.00 59 1018.9
20260502045403 46 30 9.0 11.0 0.00 0.00 0.00 59 1018.9
20260502044715 46 30 9.0 11.0 0.00 0.00 0.00 59 1018.9
20260502043603 48 35 9.0 12.0 0.00 0.00 0.00 55 1018.8
20260502042915 48 34 9.0 12.0 0.00 0.00 0.00 55 1018.8
20260502041803 48 37 7.0 10.0 0.00 0.00 0.00 55 1018.6
20260502041115 48 37 8.0 10.0 0.00 0.00 0.00 55 1018.6
20260502040003 48 32 9.0 11.0 0.00 0.00 0.00 56 1018.6
20260502035403 48 31 9.0 11.0 0.00 0.00 0.00 56 1018.6
20260502034716 49 33 8.0 11.0 0.00 0.00 0.00 54 1018.5
20260502033813 50 32 10.0 12.0 0.00 0.00 0.00 54 1018.4
20260502032916 50 31 11.0 14.0 0.00 0.00 0.00 53 1018.3
20260502032013 51 33 11.0 14.0 0.00 0.00 0.00 52 1018.2
20260502031115 51 29 12.0 15.0 0.00 0.00 0.00 52 1018.0
20260502030003 51 25 12.0 14.0 0.00 0.00 0.00 53 1017.8
20260502025614 51 24 11.0 13.0 0.00 0.00 0.00 53 1017.8
20260502024717 52 18 12.0 15.0 0.00 0.00 0.00 51 1017.7
20260502023814 53 16 13.0 18.0 0.00 0.00 0.00 49 1017.6
20260502022703 53 15 14.0 18.0 0.00 0.00 0.00 50 1017.4
20260502022014 51 14 11.0 17.0 0.00 0.00 0.00 55 1017.3
20260502020903 51 13 10.0 12.0 0.00 0.00 0.00 56 1017.0